Torna al catalogo

ELECTRON KICK STAGE R/B

AttivoVLEO
NORAD 64230·ROCKET BODY·🇺🇸 United States

Lanciato Jun 2, 2025 da Rocket Lab Launch Complex 1

Loading…

Prossimi Passaggi (prossime 24 ore)

TLE

AggiornatoSource: Space-Track

Epoca: Sep 14, 2026, 14:02 UTC

1 64230U 25118A   26257.58498337  .00239241  00000-0  99211-3 0  9997
2 64230  58.9702  94.4370 0003011  87.7573 272.3869 15.84761798 72593

Traccia ELECTRON KICK STAGE R/B in tempo reale con AllMySat

Download on the App Store